Pardubice, Czech Republic

4:24 AM CEST on August 19, 2017 (GMT +0200)
Pardubice

Weather History for LKPD - May, 2013

Change the Weather History Date:

Monday, May 20, 2013

  Actual Average Record
Temperature  
Mean Temperature 58 °F -  
Max Temperature 66 °F - - ()
Min Temperature 50 °F - - ()
Degree Days  
Heating Degree Days 7    
Growing Degree Days 8 (Base 50)    
Moisture  
Dew Point 47 °F    
Average Humidity 67    
Maximum Humidity 94    
Minimum Humidity 43    
Precipitation  
Precipitation 0.00 in - - ()
Sea Level Pressure  
Sea Level Pressure 29.85 in    
Wind  
Wind Speed 7 mph ()    
Max Wind Speed 13 mph    
Max Gust Speed -    
Visibility 6.2 miles    
Events      
T = Trace of Precipitation, MM = Missing Value Source: Averaged Metar Reports

Daily Weather History Graph

Daily Weather History Graph

Search for Another Location

Airport or City:

Trip Planner

Search our weather history database for the weather conditions in past years. The results will help you decide how hot, cold, wet, or windy it might be!

Date:

Astronomy

May. 20, 2013 Rise Set
Actual Time 5:04 AM CEST 8:43 PM CEST
Civil Twilight 4:24 AM CEST 9:24 PM CEST
Nautical Twilight 3:29 AM CEST 10:19 PM CEST
Astronomical Twilight 2:09 AM CEST 11:40 PM CEST
Moon 3:03 PM CEST (5/20) 2:22 AM CEST (5/20)
Length of Visible Light 17h 00m
Length of Day
15h 38m
Waxing Gibbous, 72% of the Moon is Illuminated
May 20
Waxing Gibbous
May 25
Full
May 31
Last Quarter
Jun 8
New
Jun 16
First Quarter

Hourly Weather History & Observations

Time (CEST) Temp. Dew Point Humidity Pressure Visibility Wind Dir Wind Speed Gust Speed Precip Events Conditions
12:00 AM 59.0 °F 57.2 °F 94% 29.77 in 6.2 mi West 6.9 mph - N/A   Mostly Cloudy
1:00 AM 59.0 °F 57.2 °F 94% 29.77 in 6.2 mi SSW 3.5 mph - N/A   Mostly Cloudy
2:00 AM 59.0 °F 57.2 °F 94% 29.77 in 6.2 mi WSW 4.6 mph - N/A   Mostly Cloudy
3:00 AM 55.4 °F 51.8 °F 88% 29.80 in 6.2 mi West 11.5 mph - N/A   Mostly Cloudy
4:00 AM 53.6 °F 50.0 °F 88% 29.80 in 6.2 mi WSW 8.1 mph - N/A   Mostly Cloudy
5:00 AM 51.8 °F 48.2 °F 88% 29.83 in - WSW 11.5 mph - N/A   Clear
6:00 AM 50.0 °F 46.4 °F 87% 29.86 in - WSW 6.9 mph - N/A   Clear
7:00 AM 50.0 °F 46.4 °F 87% 29.86 in - WSW 6.9 mph - N/A   Clear
8:00 AM 53.6 °F 46.4 °F 77% 29.86 in - West 9.2 mph - N/A   Clear
10:00 AM 59.0 °F 46.4 °F 63% 29.89 in 6.2 mi West 12.7 mph - N/A   Scattered Clouds
11:00 AM 60.8 °F 46.4 °F 59% 29.89 in 6.2 mi West 12.7 mph - N/A   Mostly Cloudy
12:00 PM 62.6 °F 44.6 °F 52% 29.89 in 6.2 mi West 12.7 mph - N/A   Mostly Cloudy
1:00 PM 62.6 °F 44.6 °F 52% 29.89 in 6.2 mi WSW 12.7 mph - N/A   Mostly Cloudy
2:00 PM 64.4 °F 44.6 °F 49% 29.89 in 6.2 mi West 10.4 mph - N/A   Mostly Cloudy
3:00 PM 64.4 °F 44.6 °F 49% 29.89 in - WSW 10.4 mph - N/A   Clear
4:00 PM 64.4 °F 42.8 °F 45% 29.89 in - West 9.2 mph - N/A   Clear
5:00 PM 66.2 °F 42.8 °F 43% 29.86 in - West 11.5 mph - N/A   Clear
6:00 PM 66.2 °F 42.8 °F 43% 29.86 in - West 8.1 mph - N/A   Clear
7:00 PM 64.4 °F 42.8 °F 45% 29.86 in - WNW 5.8 mph - N/A   Clear
8:00 PM 64.4 °F 42.8 °F 45% 29.86 in - Variable 2.3 mph - N/A   Clear
9:00 PM 59.0 °F 44.6 °F 59% 29.86 in 6.2 mi Calm Calm - N/A   Scattered Clouds
10:00 PM 53.6 °F 46.4 °F 77% 29.89 in 6.2 mi Variable 2.3 mph - N/A   Scattered Clouds